Terug naar catalogus

FENGYUN 1C DEB

ActiefSSO
NORAD 37457·DEBRIS·🇨🇳 China

Gelanceerd May 10, 1999 vanaf Taiyuan Satellite Launch Center

Loading…

Volgende Passages (komende 24 uur)

TLE

VerouderendSource: Space-Track

Epoch: Sep 9, 2026, 11:20 UTC

1 37457U 99025EJB 26252.47266043  .00002372  00000-0  10231-2 0  9993
2 37457  99.0899 334.8355 0059972  21.2653 339.0997 14.24553294639236

Volg FENGYUN 1C DEB in realtime met AllMySat

Download on the App Store